Total_Precipitation_Accumulation
1.74 1.96 1.51 0.93 0.73 0.65 0.60 0.48 0.38 0.33 0.37 0.47 0.43 0.36 0.41 0.45 0.52 0.53 0.54 0.57 0.63 0.82 0.96 1.15 1.46 1.83 2.13 2.30 2.62 2.78 3.02 3.25 3.33 3.26 2.94 2.65 2.48 2.43 2.27 1.97 1.74 1.71 1.66 1.55
1.70 1.48 0.84 0.60 0.68 0.74 0.75 0.68 0.48 0.35 0.31 0.44 0.44 0.39 0.38 0.42 0.49 0.51 0.52 0.52 0.55 0.63 0.78 0.97 1.33 1.54 1.77 2.02 2.22 2.53 2.64 2.95 3.01 2.93 2.89 2.74 2.66 2.60 2.49 2.32 2.01 1.86 1.81 1.70
1.27 0.90 0.67 0.76 0.89 0.92 0.78 0.66 0.54 0.48 0.41 0.50 0.56 0.51 0.39 0.38 0.40 0.39 0.40 0.40 0.47 0.52 0.60 0.75 1.07 1.36 1.49 1.74 2.04 2.18 2.33 2.58 2.84 2.90 3.05 3.13 3.07 2.81 2.54 2.39 2.29 2.09 1.97 1.90
1.10 0.77 0.80 0.87 0.86 0.86 0.80 0.48 0.52 0.57 0.73 0.71 0.56 0.69 0.44 0.33 0.33 0.34 0.36 0.33 0.37 0.45 0.50 0.60 0.71 0.98 1.21 1.39 1.78 2.11 2.30 2.47 2.66 2.98 2.97 2.85 2.71 2.53 2.25 2.25 2.32 2.31 2.19 2.07
1.12 0.81 0.92 0.95 0.66 0.66 0.70 0.48 0.57 0.67 0.82 0.82 0.52 0.57 0.43 0.27 0.30 0.32 0.35 0.33 0.40 0.51 0.55 0.55 0.58 0.74 0.95 1.14 1.48 1.83 2.10 2.41 2.65 2.77 2.79 2.81 2.60 2.42 2.37 2.30 2.30 2.21 2.12 2.08
0.81 0.81 0.99 0.87 0.59 0.64 0.78 0.82 0.89 0.95 1.24 1.23 0.48 0.46 0.41 0.30 0.33 0.35 0.35 0.35 0.41 0.50 0.55 0.54 0.56 0.66 0.83 0.95 1.18 1.53 1.80 1.97 2.27 2.57 2.59 2.58 2.55 2.50 2.47 2.27 2.19 2.17 2.12 2.07
1.07 0.93 0.94 0.93 0.97 0.98 1.17 1.65 2.16 2.07 1.77 0.93 0.31 0.36 0.37 0.31 0.37 0.40 0.40 0.40 0.42 0.44 0.46 0.47 0.52 0.61 0.75 0.89 1.02 1.20 1.40 1.55 1.76 2.03 2.21 2.23 2.31 2.39 2.31 2.21 2.03 1.97 1.93 1.89
1.20 1.17 0.90 1.05 1.16 1.22 1.17 1.41 1.67 1.36 0.82 0.44 0.28 0.33 0.33 0.31 0.39 0.42 0.42 0.40 0.38 0.43 0.45 0.44 0.44 0.51 0.62 0.74 0.89 1.00 1.12 1.25 1.44 1.63 1.80 1.96 2.07 2.23 2.24 2.20 1.98 1.83 1.76 1.74
1.05 0.98 0.68 0.83 0.87 0.91 1.08 1.06 0.93 1.17 0.74 0.45 0.33 0.27 0.22 0.21 0.25 0.33 0.36 0.34 0.34 0.42 0.44 0.42 0.41 0.43 0.53 0.60 0.71 0.83 0.96 1.07 1.18 1.35 1.53 1.71 1.81 1.89 1.97 2.05 2.00 1.84 1.75 1.70
1.06 1.11 0.78 0.85 1.07 1.00 0.89 0.87 1.09 1.54 1.22 0.68 0.34 0.23 0.29 0.26 0.25 0.31 0.35 0.37 0.39 0.43 0.44 0.41 0.42 0.46 0.53 0.54 0.59 0.70 0.87 0.93 0.99 1.10 1.24 1.37 1.51 1.67 1.76 1.81 1.80 1.73 1.68 1.66
1.01 1.28 1.03 1.08 1.27 0.99 0.86 1.08 1.25 1.25 0.96 0.82 0.57 0.42 0.36 0.32 0.27 0.30 0.34 0.37 0.40 0.44 0.45 0.45 0.48 0.55 0.60 0.57 0.59 0.67 0.77 0.89 0.96 1.01 1.09 1.14 1.16 1.26 1.44 1.59 1.63 1.63 1.60 1.57
0.99 1.33 1.13 0.91 0.74 0.66 0.72 0.78 1.00 1.35 0.98 0.69 0.65 0.57 0.38 0.32 0.27 0.27 0.32 0.35 0.37 0.39 0.41 0.48 0.54 0.56 0.58 0.61 0.65 0.70 0.74 0.82 0.94 0.99 1.02 1.08 1.09 1.08 1.16 1.29 1.42 1.51 1.58 1.49
1.20 1.53 1.37 1.16 1.01 0.90 0.89 0.70 0.77 1.08 1.26 0.95 0.80 0.62 0.40 0.30 0.29 0.28 0.30 0.34 0.37 0.40 0.40 0.42 0.49 0.54 0.55 0.60 0.70 0.74 0.79 0.81 0.84 0.91 0.93 0.95 0.96 0.94 0.98 1.05 1.18 1.26 1.37 1.38
1.33 1.45 1.23 1.11 0.99 0.91 0.82 0.62 0.70 1.26 1.50 0.91 0.61 0.52 0.39 0.33 0.32 0.30 0.31 0.37 0.39 0.39 0.39 0.40 0.45 0.49 0.53 0.58 0.63 0.64 0.74 0.77 0.80 0.81 0.89 0.91 0.88 0.87 0.91 0.99 1.05 1.10 1.16 1.24
1.24 1.43 0.93 0.68 0.56 0.60 0.62 0.50 0.59 0.94 0.94 0.93 0.59 0.45 0.46 0.41 0.35 0.30 0.31 0.33 0.33 0.33 0.37 0.41 0.43 0.46 0.48 0.47 0.47 0.50 0.57 0.66 0.70 0.74 0.83 0.89 0.90 0.93 1.03 1.05 1.01 1.02 1.03 1.09
0.96 1.21 0.94 0.71 0.47 0.45 0.48 0.41 0.47 0.59 0.61 0.65 0.51 0.49 0.40 0.35 0.30 0.28 0.29 0.28 0.27 0.30 0.31 0.33 0.37 0.43 0.45 0.44 0.42 0.44 0.48 0.52 0.54 0.59 0.68 0.78 0.85 0.93 1.03 1.08 1.06 1.01 0.98 1.03
0.81 0.99 1.07 0.73 0.42 0.55 0.65 0.54 0.55 0.58 0.58 0.62 0.64 0.54 0.36 0.34 0.31 0.33 0.31 0.26 0.25 0.26 0.28 0.27 0.30 0.35 0.36 0.37 0.39 0.42 0.43 0.47 0.50 0.51 0.55 0.66 0.82 0.89 0.94 1.01 1.05 1.03 1.02 1.11
0.64 0.85 1.16 0.86 0.64 0.81 0.59 0.39 0.42 0.49 0.56 0.55 0.54 0.42 0.33 0.33 0.34 0.33 0.30 0.26 0.24 0.23 0.24 0.24 0.26 0.29 0.29 0.30 0.33 0.35 0.37 0.42 0.50 0.54 0.59 0.66 0.76 0.86 0.97 1.03 1.07 1.10 1.10 1.17
0.41 0.81 1.24 1.04 0.83 0.53 0.31 0.26 0.39 0.50 0.55 0.41 0.38 0.34 0.27 0.25 0.26 0.27 0.28 0.25 0.24 0.24 0.23 0.23 0.24 0.25 0.24 0.26 0.29 0.30 0.34 0.40 0.46 0.52 0.58 0.62 0.70 0.81 0.93 1.04 1.12 1.15 1.17 1.21
0.40 0.73 1.33 1.16 0.95 0.59 0.38 0.21 0.24 0.43 0.66 0.34 0.29 0.29 0.27 0.24 0.32 0.31 0.26 0.26 0.22 0.22 0.26 0.27 0.25 0.24 0.23 0.26 0.28 0.31 0.35 0.40 0.47 0.50 0.55 0.59 0.65 0.75 0.86 0.97 1.07 1.12 1.14 1.14
0.57 0.95 1.20 1.00 0.92 0.52 0.34 0.20 0.20 0.61 0.83 0.38 0.31 0.30 0.29 0.32 0.35 0.30 0.24 0.22 0.22 0.23 0.27 0.32 0.33 0.33 0.34 0.36 0.36 0.37 0.40 0.44 0.47 0.49 0.55 0.59 0.63 0.70 0.79 0.86 0.89 0.93 0.94 0.93
0.52 0.65 0.68 0.72 0.92 0.65 0.36 0.30 0.55 0.72 0.47 0.36 0.33 0.35 0.38 0.39 0.33 0.30 0.27 0.25 0.24 0.27 0.30 0.35 0.40 0.41 0.42 0.43 0.44 0.45 0.47 0.50 0.49 0.51 0.56 0.61 0.63 0.62 0.63 0.67 0.72 0.71 0.72 0.74
0.51 0.64 0.66 0.66 0.76 0.66 0.53 0.61 0.65 0.55 0.47 0.41 0.39 0.39 0.40 0.44 0.42 0.39 0.37 0.35 0.33 0.32 0.35 0.37 0.39 0.39 0.40 0.45 0.49 0.51 0.52 0.50 0.49 0.52 0.53 0.55 0.56 0.55 0.56 0.57 0.59 0.62 0.63 0.65
0.44 0.44 0.53 0.55 0.56 0.49 0.45 0.43 0.42 0.42 0.45 0.44 0.41 0.42 0.41 0.43 0.45 0.43 0.44 0.42 0.42 0.41 0.38 0.37 0.36 0.36 0.39 0.41 0.45 0.47 0.45 0.44 0.43 0.45 0.45 0.45 0.45 0.47 0.49 0.50 0.54 0.59 0.61 0.60
0.45 0.42 0.46 0.49 0.44 0.35 0.32 0.33 0.33 0.31 0.30 0.31 0.32 0.34 0.37 0.37 0.41 0.43 0.43 0.43 0.43 0.41 0.39 0.36 0.36 0.37 0.39 0.38 0.39 0.41 0.40 0.38 0.38 0.40 0.38 0.37 0.38 0.43 0.46 0.48 0.51 0.56 0.60 0.65
0.45 0.49 0.54 0.55 0.42 0.41 0.39 0.34 0.29 0.27 0.28 0.29 0.30 0.31 0.32 0.33 0.39 0.38 0.39 0.39 0.39 0.40 0.39 0.36 0.36 0.38 0.38 0.35 0.36 0.36 0.37 0.39 0.39 0.39 0.39 0.38 0.36 0.40 0.46 0.50 0.52 0.58 0.61 0.67